RH
50 50 51 51 50 48 50 51 51 51 51 52 52 50 45 44 43 42 42 41 41 42 39 39 42 43 39 35 34 32 33 32 30 31 32 31 32 34 37 40 42 42 44 53 63 67 68 70 68 68 69 67 64 59 50 45 43 42 41 41 41 41 41 41 40 40 41 42 44 47 49 51 52 53 55 56 57 58 60 62 66 69 70 71 70
52 53 53 52 50 49 49 50 53 54 53 52 51 50 45 42 41 39 40 38 38 37 33 34 38 38 34 31 30 31 32 31 29 30 32 33 31 29 29 30 32 33 33 38 51 63 67 66 63 63 69 72 72 67 56 47 44 42 41 41 41 41 42 41 41 41 41 41 43 46 49 52 54 55 56 56 57 57 58 60 63 67 70 72 72
51 52 52 52 52 51 51 52 54 54 53 51 49 49 43 39 38 36 36 34 33 33 32 33 35 36 34 30 27 27 30 28 27 29 32 32 30 28 27 25 25 26 26 26 35 49 58 63 63 64 69 73 73 70 62 54 49 45 43 41 41 42 42 43 43 42 42 42 43 45 48 52 54 56 57 58 58 57 57 60 62 65 69 72 72
46 48 51 54 54 52 52 52 53 52 51 50 49 48 43 40 39 35 34 33 32 35 35 33 34 35 32 27 23 22 25 25 27 30 30 28 26 25 26 26 24 22 22 21 25 35 45 58 65 63 65 70 73 73 69 64 58 53 47 43 42 43 44 44 45 45 44 43 43 44 47 51 53 55 58 59 60 59 58 60 63 65 68 70 71
43 46 52 55 53 48 50 53 53 51 50 48 47 48 47 44 39 36 37 36 36 35 30 26 27 27 27 25 23 23 27 30 33 34 33 31 29 27 26 26 24 22 21 20 22 28 36 51 63 64 64 68 72 74 74 69 66 62 56 50 46 45 45 46 48 48 48 47 46 45 46 49 52 54 56 58 60 60 59 60 62 64 68 69 70
45 49 51 52 50 46 48 52 52 50 48 47 48 50 47 41 37 37 38 37 34 28 23 23 24 24 24 25 27 30 34 36 37 37 37 36 34 32 31 30 27 26 25 20 20 24 31 44 57 65 66 68 70 72 74 73 71 68 63 59 54 50 49 49 50 51 50 50 49 48 47 48 50 52 54 56 58 60 60 60 61 63 66 68 68
45 50 51 51 50 50 51 52 51 49 49 49 49 48 43 38 37 35 33 29 26 23 23 25 25 23 23 28 34 36 37 39 37 36 38 38 37 36 36 34 32 31 27 25 24 22 27 38 48 59 65 68 70 71 72 73 73 72 69 67 62 59 55 52 52 54 55 52 50 49 48 48 49 50 53 54 55 56 58 59 60 61 63 66 68
43 48 50 50 51 51 52 50 49 50 51 51 46 44 41 38 34 27 23 20 19 24 26 26 27 26 28 34 39 39 39 40 38 38 38 37 38 39 38 37 36 31 23 24 29 25 25 32 39 48 57 63 67 70 71 71 71 72 73 73 72 69 65 60 55 55 57 57 55 53 51 53 53 53 54 55 55 55 55 56 58 59 59 62 66
46 48 47 46 48 50 51 49 49 50 50 47 43 40 36 31 24 18 17 17 20 26 26 26 28 28 31 37 41 43 42 39 37 37 37 37 38 39 41 40 37 33 25 25 32 28 22 26 33 41 49 56 61 65 68 70 71 73 74 76 79 79 74 69 61 55 57 58 60 59 57 57 57 56 55 55 56 57 56 55 56 58 58 57 62
46 44 39 38 39 42 47 48 47 46 45 42 38 33 25 20 18 17 18 20 23 23 22 23 24 25 27 31 34 37 38 36 36 37 37 40 41 40 42 42 40 38 34 31 31 27 22 22 27 34 42 49 54 58 60 62 66 71 75 78 81 82 79 76 69 62 61 60 59 60 60 58 56 55 54 53 54 56 57 56 55 57 59 58 57
41 40 38 36 34 36 41 44 43 40 38 35 29 24 20 17 19 19 19 22 20 19 20 21 19 20 23 24 24 26 29 31 33 36 37 39 40 41 43 44 43 43 40 38 34 29 26 25 28 33 39 43 48 53 54 55 59 64 71 77 81 82 82 80 73 68 66 63 61 61 61 58 55 54 54 53 52 52 55 57 57 56 58 59 58
40 45 45 40 35 35 38 37 34 30 26 23 22 22 21 19 20 19 20 22 21 19 19 17 18 19 23 24 22 20 21 24 29 33 35 36 38 41 43 42 44 45 44 44 43 40 36 32 33 37 40 40 40 44 49 53 56 62 67 70 72 74 77 78 76 74 71 69 67 65 62 58 55 55 55 55 53 51 52 55 57 57 57 59 60
40 47 50 44 33 30 29 25 21 19 18 18 20 22 21 20 20 18 20 22 23 24 18 16 20 23 25 26 24 23 22 23 27 30 31 33 34 37 39 39 40 43 44 43 43 45 45 42 40 40 41 39 36 37 42 46 50 56 60 61 63 65 68 72 74 76 77 75 72 69 65 61 58 57 56 57 57 54 53 53 54 56 57 58 59
37 40 41 37 29 24 22 19 17 17 18 18 18 18 19 19 19 21 23 22 22 24 18 17 24 25 25 25 25 25 26 27 27 27 29 31 32 35 36 34 35 37 40 42 42 43 45 45 44 43 42 41 39 39 41 45 49 52 53 54 55 58 61 65 67 70 75 77 77 74 71 67 63 61 59 58 59 57 55 53 51 52 55 58 58
30 31 30 28 24 23 21 18 19 20 20 20 17 17 17 17 21 23 23 22 23 23 18 18 25 26 24 25 24 23 28 37 35 28 27 29 30 31 32 31 30 30 33 36 37 37 38 38 39 40 40 39 38 39 40 43 45 43 42 43 45 47 51 56 60 63 67 71 75 77 76 74 70 67 63 60 60 59 56 54 53 50 50 54 56
25 26 27 26 24 24 21 20 22 22 22 21 19 21 21 22 24 20 17 22 25 25 21 19 22 25 25 25 24 24 31 38 35 28 29 32 31 27 27 28 26 25 26 27 28 30 30 31 31 31 32 33 34 36 39 40 40 37 34 35 37 39 41 45 50 55 60 64 68 71 75 77 76 74 69 64 62 60 58 57 56 53 50 50 53
26 26 26 26 24 24 22 23 24 22 21 20 21 23 23 24 24 19 16 21 24 26 25 22 20 21 25 25 25 31 33 27 27 34 40 40 34 27 25 25 22 22 22 21 22 23 25 25 25 25 26 28 29 31 34 35 36 36 33 31 32 33 35 36 38 42 47 52 57 62 66 71 75 78 76 72 67 62 61 60 58 56 53 50 51
27 27 27 26 24 24 24 24 23 22 22 20 21 24 23 23 22 21 22 22 22 25 28 24 20 20 24 24 25 32 33 27 27 35 39 38 33 29 27 25 21 20 21 22 23 23 24 23 22 23 23 24 26 28 29 29 29 29 27 27 27 28 29 30 31 32 35 38 42 48 53 59 65 71 76 79 76 70 65 63 61 59 56 54 52
28 29 30 28 27 27 26 24 22 24 24 20 23 26 25 24 21 21 27 26 22 25 28 27 24 23 23 24 27 30 31 30 28 30 34 36 33 31 31 29 25 23 22 23 25 25 24 24 23 23 22 22 22 23 25 26 26 26 26 25 24 24 25 26 27 28 30 33 34 36 41 46 53 60 66 73 78 78 73 68 65 62 59 58 55
31 33 33 32 32 31 28 25 23 24 23 21 26 28 24 22 20 20 22 23 22 23 26 27 28 28 26 28 32 31 29 30 28 29 31 33 36 39 38 33 27 25 24 24 25 24 22 22 23 23 23 22 21 21 21 22 23 24 25 25 24 24 24 24 25 25 26 29 31 32 33 35 41 48 54 61 69 77 79 76 70 65 62 62 60
30 31 32 32 33 33 32 28 25 21 20 24 29 25 19 18 19 20 21 22 22 21 23 26 27 28 30 31 33 33 33 34 35 36 35 32 36 38 38 37 33 30 26 25 26 25 23 22 22 24 26 25 23 22 21 20 20 20 20 21 22 22 22 23 23 24 24 24 26 28 29 30 32 36 42 49 57 66 73 76 76 72 67 65 65
29 30 32 33 34 36 36 32 27 22 21 27 29 21 17 16 18 21 21 21 22 22 22 23 24 27 31 32 33 37 38 37 37 40 41 40 37 34 36 42 43 38 31 30 30 30 29 28 27 28 28 28 27 25 24 22 21 20 20 19 18 18 18 19 19 21 22 23 23 23 25 27 28 29 32 37 44 53 61 69 75 76 73 69 66
33 31 33 36 38 40 40 36 32 27 21 25 28 25 23 22 20 20 20 19 22 23 23 23 23 26 30 33 36 41 43 38 35 36 38 39 37 34 36 39 39 37 35 37 36 34 32 31 30 30 28 28 29 26 24 23 23 22 22 21 20 19 18 17 16 16 18 19 21 22 22 23 24 25 26 28 33 41 49 60 69 73 74 74 71
38 35 36 40 43 44 43 42 40 34 28 29 32 30 30 28 22 21 22 20 21 23 24 25 26 27 31 35 38 42 44 43 40 40 41 41 39 38 37 36 36 35 36 39 38 36 34 32 31 31 28 28 28 25 22 23 24 23 22 22 22 21 20 18 17 16 16 16 17 20 22 22 23 23 24 24 25 29 36 47 59 67 71 74 76
43 43 43 45 47 46 43 44 45 41 37 36 35 32 29 27 24 22 23 23 22 23 25 27 28 29 32 35 37 38 41 43 43 44 43 43 44 43 39 36 36 37 38 39 39 37 35 33 33 33 29 27 28 26 23 25 28 24 21 22 22 21 21 20 18 17 16 16 16 17 19 22 23 23 24 24 23 23 25 30 41 53 64 70 74
46 46 46 46 47 46 42 43 47 47 43 38 37 36 31 28 25 25 27 27 25 24 26 28 30 30 30 33 34 35 38 40 42 43 41 40 41 42 41 38 36 35 35 37 38 38 36 35 34 35 32 28 28 29 25 26 29 25 22 23 22 23 22 21 21 18 16 16 16 17 18 20 22 23 24 24 24 24 24 23 26 33 46 58 66
45 45 45 45 44 43 41 41 45 50 50 45 44 46 43 35 28 27 30 31 29 29 30 29 30 29 30 30 31 33 37 39 41 41 41 41 42 43 45 44 38 33 32 33 33 33 34 35 34 35 35 30 27 29 28 27 29 27 25 25 25 26 25 23 23 21 19 17 17 17 17 19 21 23 24 23 23 24 24 24 23 23 28 38 51
46 46 47 47 46 45 43 43 46 50 53 53 53 56 55 47 38 34 35 35 33 33 33 32 31 31 32 33 32 34 39 40 40 42 44 45 45 44 46 47 45 40 36 33 33 32 32 33 35 34 35 33 29 29 30 30 31 30 29 29 29 28 27 26 25 25 22 20 18 18 18 19 20 21 23 23 22 22 22 22 23 22 22 24 34
47 49 52 52 51 49 50 51 51 53 56 57 58 59 59 56 51 45 41 39 37 36 38 38 37 35 37 39 37 38 42 40 39 43 44 45 45 45 46 48 49 48 42 38 36 36 34 34 35 34 34 36 36 37 36 35 35 34 32 31 30 29 29 27 26 26 25 24 22 20 19 19 19 20 22 23 23 21 21 20 20 20 20 20 22
50 54 56 56 54 53 55 54 53 54 58 60 62 60 59 59 58 52 46 42 39 39 41 42 40 38 37 37 38 41 42 41 42 44 45 45 45 46 47 47 47 48 46 42 38 37 37 37 36 35 36 38 40 42 42 40 38 35 33 32 30 30 30 29 28 28 27 26 25 23 21 20 19 19 20 22 23 23 21 21 20 19 19 18 18
55 60 59 59 59 58 57 56 57 59 62 65 65 61 57 58 60 57 52 48 44 40 42 46 48 45 41 39 40 43 44 43 44 45 45 46 47 47 47 46 45 43 43 43 39 36 37 39 37 36 39 40 40 40 40 38 37 35 33 31 31 32 32 31 30 29 28 28 27 25 24 22 20 18 18 19 21 22 22 20 20 19 18 18 17
56 61 62 64 63 59 58 59 61 62 66 69 68 65 63 62 62 61 57 52 48 44 45 53 57 54 50 45 42 44 46 47 47 48 47 48 48 47 47 46 45 45 45 45 42 37 35 38 38 37 38 40 40 39 38 36 36 35 33 32 31 32 33 33 32 30 28 29 30 29 27 25 23 20 18 18 19 20 21 20 19 18 18 17 17
53 57 61 64 60 54 56 62 65 66 67 69 70 70 69 68 67 64 58 52 48 47 51 55 57 56 53 47 44 46 49 49 49 49 48 47 48 47 47 46 47 48 49 48 44 39 36 36 36 36 37 39 40 39 37 37 39 37 34 31 30 29 30 31 33 32 31 30 30 31 30 28 27 25 23 22 22 22 21 21 21 20 18 17 17
53 55 57 59 55 50 54 61 65 65 65 66 69 70 69 71 70 65 59 54 52 53 57 55 52 52 52 49 48 50 49 47 47 47 47 46 47 47 45 45 45 45 46 47 43 40 38 36 34 33 34 37 40 38 36 36 38 39 36 33 32 32 30 31 34 36 35 32 30 29 29 28 27 27 28 28 27 25 23 23 23 23 22 20 19
54 54 54 55 51 49 53 57 59 60 61 63 68 69 70 72 70 64 59 59 58 59 60 57 52 53 53 50 49 50 49 47 45 45 45 45 45 43 41 41 42 41 42 44 43 40 38 36 34 34 33 34 36 36 34 35 37 39 38 36 36 37 37 38 39 40 39 36 32 29 28 27 27 27 29 30 31 28 26 24 24 24 24 23 22
56 53 51 51 49 49 53 57 57 56 58 61 65 69 72 73 69 63 60 61 62 61 60 56 54 55 56 53 51 51 51 49 46 46 46 45 43 41 40 41 42 41 40 41 42 42 41 37 34 35 36 36 37 37 37 39 42 42 40 38 39 39 41 45 46 46 46 43 38 34 32 30 29 29 30 31 32 31 28 25 24 23 23 24 23
54 50 47 48 48 50 54 56 54 51 52 56 61 67 72 74 71 64 60 61 62 61 59 57 55 57 59 57 54 52 52 52 51 50 50 47 44 41 41 42 42 41 40 39 40 42 43 41 37 37 40 43 44 44 45 46 47 46 45 44 45 46 46 48 49 51 51 47 44 42 41 38 35 32 30 30 32 32 30 28 26 25 23 22 22
51 47 46 46 47 51 56 59 58 52 50 53 58 64 71 76 74 67 62 61 61 60 58 57 57 61 61 58 55 54 55 55 55 54 51 49 45 40 40 40 39 38 39 40 42 44 45 43 42 42 44 47 49 50 53 53 51 49 50 51 52 53 53 52 51 52 52 49 48 48 47 46 43 40 36 33 32 32 30 29 28 27 25 24 22
50 48 47 46 47 50 55 61 62 57 53 54 57 62 71 77 75 69 66 65 63 60 59 58 61 64 63 60 58 57 57 56 55 54 53 49 45 40 38 39 37 36 38 40 43 45 46 45 46 46 45 46 48 51 57 59 55 53 55 55 55 56 55 53 53 54 56 55 52 50 50 49 47 45 42 40 38 37 34 30 28 27 27 26 25
53 53 52 47 46 48 51 56 56 55 56 59 60 64 73 78 75 71 69 68 65 61 59 60 64 65 62 61 61 59 58 55 53 54 53 48 44 41 40 40 38 37 38 39 40 42 44 46 47 47 46 45 47 51 55 58 58 58 58 58 56 56 56 56 57 58 60 58 54 51 51 48 45 43 43 43 43 42 38 32 28 27 27 27 27
59 58 55 49 47 52 54 53 49 49 54 59 62 66 71 74 74 72 68 67 65 60 58 62 66 65 62 60 61 60 58 55 53 53 51 46 44 43 42 40 37 35 37 40 41 40 41 45 48 49 47 46 48 53 53 54 57 59 58 58 58 59 59 60 60 60 59 57 54 51 48 45 43 42 42 42 41 42 39 35 33 32 31 30 30
57 57 56 55 56 59 59 53 47 47 52 58 64 69 72 72 73 70 64 63 61 57 57 61 64 65 63 63 64 63 62 59 56 53 51 47 46 45 43 39 36 35 37 41 42 39 38 41 45 48 49 49 51 54 53 53 56 57 58 59 58 57 58 58 57 54 52 53 53 49 46 44 43 42 41 39 38 38 37 37 38 39 38 35 33
53 56 60 64 62 59 57 51 47 50 56 64 72 76 75 74 72 65 59 59 59 57 57 60 63 65 65 65 67 68 69 67 63 57 53 50 49 46 42 39 36 36 37 39 39 38 37 38 40 43 47 48 50 51 52 53 55 55 56 57 56 55 56 56 52 47 47 51 52 47 42 40 39 39 39 39 38 37 37 37 37 39 40 39 37
53 55 62 66 61 57 55 51 50 54 60 70 79 79 76 76 71 62 57 59 59 57 57 61 64 67 68 67 67 70 72 73 70 64 57 55 52 47 40 37 35 36 38 39 39 38 38 38 37 38 41 44 45 48 51 51 51 51 52 53 53 53 53 51 47 45 47 49 46 41 37 36 37 37 38 39 39 38 38 38 38 39 41 41 40
47 46 54 61 58 53 51 51 56 61 66 75 81 78 76 77 70 61 58 59 57 56 60 64 68 70 71 69 70 72 74 74 73 69 65 62 57 47 38 36 37 38 40 40 40 39 39 39 37 37 38 39 41 46 49 49 49 49 50 52 50 49 49 48 47 46 45 42 40 37 36 37 39 37 35 36 37 36 37 38 41 42 43 43 43
47 43 49 58 59 54 53 55 61 66 71 78 80 75 75 74 67 62 61 57 53 55 60 66 70 72 72 72 74 75 74 74 75 74 71 65 54 43 38 39 39 40 41 42 42 43 42 41 39 38 39 41 44 48 50 50 51 49 49 49 47 46 46 45 43 41 38 37 38 37 37 37 36 34 33 34 35 35 38 42 47 48 48 47 46
49 47 51 58 59 58 56 59 63 67 72 78 76 72 72 69 65 65 63 56 53 57 61 65 69 72 74 76 77 76 75 76 77 77 72 59 46 40 39 39 38 39 41 42 43 43 43 42 39 37 38 42 46 48 48 49 48 47 47 46 43 41 39 37 36 36 35 34 36 35 33 32 31 31 33 36 37 38 44 51 54 54 53 52 51
50 51 56 60 61 60 58 61 67 70 74 76 71 68 67 65 65 65 62 56 56 60 63 66 70 73 77 80 82 80 79 80 80 78 68 52 42 41 41 39 38 38 41 42 40 38 39 39 38 36 37 39 41 43 44 47 47 47 48 45 40 37 36 35 34 33 32 32 32 32 30 29 32 37 41 42 43 47 55 61 61 58 58 58 57
51 55 61 63 62 60 60 66 72 74 76 75 70 67 66 63 64 64 60 58 59 63 66 68 71 75 79 81 84 85 84 82 81 76 62 48 43 43 41 39 38 38 41 42 39 38 39 39 37 37 37 37 39 42 45 47 47 46 47 45 41 38 36 35 34 31 30 31 31 31 31 30 34 44 49 49 50 58 65 66 65 66 67 65 63
53 57 61 61 60 60 64 71 75 76 78 76 71 67 64 59 59 61 60 61 64 67 69 71 74 79 80 81 82 84 84 81 76 65 53 46 46 44 41 39 38 38 41 43 42 42 43 42 41 41 41 40 42 45 46 47 47 48 49 49 45 41 37 34 33 31 30 30 31 32 33 32 36 46 53 53 55 64 71 71 70 73 74 71 67
53 56 58 58 59 63 69 73 74 76 78 74 70 69 63 56 56 59 61 65 68 70 73 78 82 83 82 81 81 82 81 75 63 53 48 48 47 44 40 39 38 39 41 44 46 46 47 48 47 46 46 47 49 50 49 48 48 51 54 54 48 43 37 34 32 30 29 30 30 30 32 35 40 46 54 60 63 67 72 74 75 78 79 76 72